Location: Forli
(44.2227°N, 12.0407°E)
Time: 14:15:16
(UTC+01:00)

Tiangong - Pass Details

Date: 20 February 2026
Orbit: 381 x 390 km, 41.5° (Epoch: 14 March)

Event Time Altitude Azimuth Distance (km) Brightness Sun altitude
Rises 19:28:24 0° 269° (W) 2,252 3.4 -18.7°
Reaches altitude 10° 19:31:01 10° 247° (WSW) 1,394 1.6 -19.2°
Maximum altitude 19:33:01 16° 207° (SSW) 1,097 0.4 -19.5°
Enters shadow 19:33:58 14° 185° (S) 1,168 0.3 -19.7°
